#timestamp,LO_Frequency,Hit,StdDev 
1552176015.6,286046996.2,N
1552176035.4,286046996.3,N
1552176055.3,286046993.5,Y
1552176075.1,286046996.6,P
1552176095.8,286046999.5,N
1552176115.7,286046999.4,N
1552176135.5,286046997.5,N
1552176155.4,286046993.4,Y
1552176175.2,286046995.0,P
1552176195.0,286046997.6,N
1552176195.9,286046997.6,N
1552176215.8,286046998.0,N
1552176235.6,286046997.0,N
1552176255.4,286046997.0,N
1552176275.3,286046999.5,N
1552176295.1,286046999.1,N
1552176315.9,286046996.6,N
1552176335.7,286046999.2,N
1552176355.5,286046998.4,N
1552176375.4,286046997.3,N
1552176395.2,286046999.1,N
1552176415.0,286046999.0,N
1552176415.9,286046999.0,N
1552176435.8,286046999.0,N
1552176455.6,286046996.8,N
1552176475.5,286046997.4,N
1552176495.3,286046995.5,Y
1552176515.1,286046999.0,P
1552176535.9,286046999.5,N
1552176555.7,286046999.4,N
1552176575.5,286047000.6,N
1552176595.4,286047000.4,N
1552176615.2,286046999.9,N
1552176635.1,286047000.5,N
1552176636.0,286047000.5,N
1552176655.8,286047001.1,N
1552176675.6,286046996.6,Y
1552176695.5,286046997.0,P
1552176715.3,286046997.0,N
1552176735.1,286046997.2,N
1552176755.9,286046997.3,N
1552176775.7,286046997.4,N
1552176795.6,286046997.1,N
1552176815.4,286046997.0,Y
1552176835.2,286047001.0,P
1552176855.1,286047000.2,N
1552176856.0,286047000.2,N
1552176875.8,286047000.4,N
1552176895.7,286047000.5,N
1552176915.5,286047000.9,N
1552176935.3,286047000.3,N
1552176955.2,286046999.9,N
1552176975.9,286047001.0,N
1552176995.7,286047000.8,N
1552177015.6,286046998.8,N
1552177035.4,286047000.8,N
1552177055.2,286046998.5,N
1552177075.1,286046999.7,N
1552177076.0,286046999.7,N
1552177095.8,286046999.9,N
1552177115.7,286047000.3,N
1552177135.5,286047000.4,N
1552177155.3,286047000.2,N
1552177175.2,286047002.3,N
1552177195.0,286046999.7,N
1552177195.9,286046999.7,N
1552177215.8,286047002.6,N
1552177235.6,286047001.5,N
1552177255.4,286047001.8,N
1552177275.3,286047001.5,N
1552177295.1,286047001.9,N
1552177315.9,286047001.8,N
1552177335.7,286047004.3,Y
1552177355.5,286047002.5,P
1552177375.4,286046999.9,N
1552177395.2,286047002.0,N
1552177415.0,286047001.7,N
1552177415.9,286047001.7,N
1552177435.8,286047001.5,N
1552177455.6,286047002.1,N
1552177475.5,286047002.3,N
1552177495.3,286047002.2,N
1552177515.1,286047001.8,N
1552177535.9,286047000.1,N
1552177555.7,286047002.5,N
1552177575.5,286047002.0,N
1552177595.4,286047002.2,N
1552177615.2,286047001.5,N
1552177635.1,286047004.3,Y
1552177636.0,286047004.3,P
1552177655.8,286047001.2,N
1552177675.6,286047000.7,N
1552177695.5,286046999.6,N
1552177715.3,286046999.5,N
1552177735.1,286046996.5,N
1552177755.9,286046997.0,N
1552177775.7,286046999.3,N
1552177795.6,286046998.7,N
1552177815.4,286046998.9,N
1552177835.2,286046999.4,N
1552177855.1,286046999.3,N
1552177856.0,286046999.3,N
1552177875.8,286046998.3,N
1552177895.6,286046998.8,N
1552177915.5,286046998.8,N
1552177935.3,286046998.2,N
1552177955.2,286046999.3,N
1552177975.9,286047000.3,N
1552177995.7,286046998.5,N
1552178015.6,286046998.2,N
1552178035.4,286046998.7,N
1552178055.2,286046998.5,N
1552178075.1,286046998.2,N
1552178076.0,286046998.2,N
1552178095.8,286047000.8,N
1552178115.7,286047001.2,N
1552178135.5,286046999.0,N
1552178155.3,286046996.9,N
1552178175.2,286046996.5,N
1552178195.9,286046999.5,N
1552178215.7,286047000.7,N
1552178235.6,286047000.5,N
1552178255.4,286047000.0,N
1552178275.2,286046999.8,N
1552178295.1,286047002.8,N
1552178296.0,286047002.8,N
1552178315.8,286046999.9,N
1552178335.7,286047000.1,N
1552178355.5,286046999.9,N
1552178375.3,286047002.6,N
1552178395.2,286047002.6,N
1552178415.0,286047002.5,N
1552178415.9,286047002.5,N
1552178435.7,286047002.8,N
1552178455.6,286046998.4,N
1552178475.4,286046999.5,N
1552178495.3,286047001.0,N
1552178515.1,286047000.3,N
1552178516.0,286047000.3,N
1552178535.8,286046999.9,N
1552178555.7,286047002.6,N
1552178575.5,286047000.5,N
1552178595.3,286047000.2,N
1552178615.2,286047000.4,N
1552178635.0,286046998.9,N
1552178635.9,286046998.9,N
1552178655.8,286046999.2,N
1552178675.6,286046998.3,N
1552178695.4,286047000.1,N
1552178715.3,286047002.1,N
1552178735.1,286046999.7,N
1552178755.8,286047002.1,N
1552178775.7,286047001.5,N
1552178795.5,286047001.6,N
1552178815.4,286047004.0,N
1552178835.2,286047001.8,N
1552178855.0,286047002.1,N
1552178855.9,286047002.1,N
1552178875.8,286047004.2,N
1552178895.6,286047001.6,N
1552178915.5,286047001.5,N
1552178935.3,286047001.7,N
1552178955.1,286047004.4,N
1552178975.9,286047002.2,N
1552178995.7,286047002.7,N
1552179015.6,286047002.4,N
1552179035.4,286047002.1,N
1552179055.2,286047002.6,N
1552179075.1,286047002.2,N
1552179076.0,286047002.2,N
1552179095.8,286046999.8,N
1552179115.6,286047000.2,N
1552179135.5,286047002.1,N
1552179155.3,286047002.7,N
1552179175.2,286046999.7,N
1552179195.0,286047001.2,N
1552179195.9,286047001.2,N
1552179215.7,286046998.3,N
1552179235.6,286046998.1,N
1552179255.4,286046999.3,N
1552179275.3,286046999.3,N
1552179295.1,286046999.0,N
1552179296.0,286046999.0,N
1552179315.8,286046998.3,N
1552179335.7,286047001.2,N
1552179355.5,286047000.4,N
1552179375.4,286046998.2,N
1552179395.2,286047001.0,N
1552179415.0,286047002.1,N
1552179415.9,286047002.1,N
1552179435.8,286047002.6,N
1552179455.6,286047000.2,N
1552179475.4,286047000.7,N
1552179495.3,286047001.0,N
1552179515.1,286046998.4,N
1552179535.9,286046996.8,N
1552179555.7,286046998.7,N
1552179575.5,286046999.3,N
1552179595.4,286047001.0,N
